Temp
-7 -7 -7 -7 -7 -7 -8 -7 -6 -5 -5 -6 -5 -5 -5 -6 -5 -5 -5 -5 -5 -6 -5 -5 -5 -6 -6 -6 -6 -6 -7 -6 -7 -7 -7 -7 -7 -7 -7 -7 -8 -8 -8 -8
-7 -7 -7 -7 -7 -8 -8 -7 -6 -5 -5 -5 -6 -6 -6 -6 -6 -6 -6 -6 -6 -5 -6 -5 -5 -6 -6 -6 -6 -7 -7 -7 -6 -7 -7 -7 -7 -7 -7 -7 -7 -8 -8 -8
-8 -8 -8 -7 -7 -8 -9 -8 -7 -7 -6 -6 -6 -6 -6 -6 -6 -6 -6 -6 -6 -7 -6 -6 -6 -6 -6 -6 -6 -6 -7 -6 -7 -7 -7 -7 -7 -7 -7 -6 -7 -7 -7 -8
-9 -8 -8 -7 -7 -8 -8 -8 -8 -7 -7 -6 -7 -7 -7 -6 -6 -6 -6 -6 -6 -6 -6 -6 -6 -6 -6 -6 -6 -6 -6 -7 -6 -7 -7 -7 -7 -7 -7 -6 -7 -7 -7 -8
-9 -8 -8 -8 -7 -7 -9 -9 -9 -8 -8 -7 -7 -7 -6 -6 -6 -6 -6 -6 -6 -6 -7 -7 -7 -6 -6 -6 -6 -5 -6 -6 -7 -7 -7 -7 -7 -7 -7 -7 -7 -7 -7 -7
-9 -9 -8 -8 -9 -8 -10 -10 -9 -9 -8 -8 -7 -7 -7 -7 -7 -6 -7 -6 -6 -7 -7 -7 -6 -6 -6 -6 -6 -6 -6 -6 -7 -7 -7 -7 -7 -7 -7 -7 -7 -7 -7 -7
-10 -9 -9 -9 -8 -8 -10 -10 -9 -9 -8 -8 -7 -6 -7 -7 -7 -7 -6 -6 -6 -5 -6 -6 -6 -6 -6 -6 -6 -6 -6 -6 -6 -7 -7 -7 -7 -7 -7 -7 -7 -7 -7 -7
-10 -10 -9 -9 -8 -9 -9 -9 -9 -9 -8 -8 -8 -6 -7 -7 -7 -6 -7 -6 -6 -6 -5 -6 -6 -6 -7 -6 -6 -6 -6 -6 -6 -7 -7 -7 -7 -7 -7 -7 -7 -7 -7 -7
-11 -11 -10 -10 -10 -9 -9 -10 -10 -10 -9 -9 -8 -7 -7 -7 -6 -7 -6 -6 -6 -6 -6 -6 -6 -6 -6 -6 -6 -6 -6 -6 -6 -6 -7 -7 -7 -7 -7 -7 -7 -7 -7 -7
-11 -11 -11 -11 -10 -10 -10 -10 -10 -10 -9 -9 -8 -7 -8 -7 -7 -7 -7 -6 -7 -6 -6 -6 -6 -6 -6 -6 -7 -7 -7 -6 -6 -6 -6 -6 -6 -6 -7 -7 -7 -7 -7 -7
-12 -12 -11 -12 -11 -10 -10 -10 -10 -10 -9 -9 -8 -7 -7 -7 -7 -7 -6 -7 -7 -7 -6 -7 -6 -7 -7 -7 -7 -7 -7 -7 -6 -6 -6 -6 -6 -6 -6 -7 -7 -7 -7 -7
-13 -12 -12 -13 -12 -11 -11 -11 -11 -10 -10 -9 -9 -8 -8 -7 -7 -7 -7 -7 -7 -7 -7 -7 -7 -8 -7 -7 -7 -6 -7 -7 -7 -7 -7 -6 -6 -6 -6 -6 -6 -6 -7 -7
-13 -13 -13 -13 -13 -12 -11 -10 -11 -11 -10 -10 -9 -9 -8 -8 -8 -8 -7 -7 -7 -7 -7 -7 -7 -8 -7 -7 -7 -7 -7 -6 -6 -7 -7 -7 -7 -7 -7 -7 -6 -6 -6 -6
-14 -13 -13 -13 -13 -12 -11 -10 -11 -11 -11 -10 -10 -9 -9 -8 -7 -8 -8 -8 -8 -8 -8 -8 -7 -8 -8 -8 -8 -6 -6 -5 -6 -7 -8 -7 -7 -7 -7 -7 -7 -6 -6 -6
-14 -14 -13 -13 -13 -12 -11 -11 -10 -11 -11 -11 -10 -10 -9 -9 -8 -8 -8 -8 -8 -8 -9 -8 -8 -8 -8 -9 -7 -8 -6 -6 -6 -7 -7 -7 -7 -7 -7 -7 -7 -7 -7 -7
-14 -14 -13 -13 -12 -13 -12 -11 -11 -11 -12 -11 -11 -10 -10 -10 -9 -9 -9 -9 -8 -8 -9 -9 -9 -9 -9 -8 -8 -8 -8 -7 -7 -7 -7 -7 -7 -7 -8 -7 -7 -7 -7 -7
-15 -14 -14 -13 -13 -12 -12 -12 -12 -11 -11 -11 -11 -10 -10 -10 -10 -10 -9 -9 -9 -8 -9 -9 -9 -9 -9 -9 -9 -9 -8 -8 -7 -7 -7 -7 -7 -7 -7 -7 -7 -8 -7 -7
-15 -15 -14 -14 -14 -13 -13 -12 -12 -12 -12 -12 -11 -11 -10 -10 -10 -10 -10 -10 -9 -10 -10 -10 -9 -10 -9 -9 -10 -9 -9 -9 -8 -8 -8 -8 -7 -8 -7 -7 -7 -7 -7 -7
-15 -15 -15 -14 -14 -14 -13 -12 -13 -13 -12 -11 -11 -11 -11 -11 -10 -10 -10 -10 -10 -11 -11 -11 -10 -10 -9 -9 -9 -10 -9 -9 -9 -9 -9 -9 -8 -8 -9 -9 -9 -7 -7 -7
-16 -15 -15 -15 -15 -15 -14 -13 -12 -12 -12 -11 -12 -11 -11 -11 -10 -11 -11 -11 -10 -11 -12 -11 -11 -10 -10 -10 -9 -9 -10 -9 -9 -10 -10 -10 -9 -9 -8 -9 -9 -9 -8 -8
-16 -16 -15 -15 -15 -15 -14 -14 -14 -12 -12 -11 -12 -12 -11 -11 -11 -11 -11 -12 -12 -11 -11 -11 -11 -11 -11 -10 -10 -9 -9 -9 -9 -9 -9 -9 -9 -9 -9 -9 -9 -9 -9 -9
-16 -16 -16 -16 -16 -14 -14 -14 -14 -14 -14 -14 -13 -13 -12 -12 -12 -12 -13 -13 -12 -12 -12 -11 -11 -12 -11 -11 -11 -11 -11 -10 -10 -9 -9 -9 -9 -9 -9 -9 -9 -9 -9 -9
-16 -16 -16 -16 -16 -16 -16 -15 -15 -15 -14 -14 -13 -13 -13 -13 -13 -13 -14 -14 -14 -13 -12 -13 -12 -12 -11 -11 -11 -11 -11 -11 -11 -11 -10 -10 -9 -9 -9 -9 -9 -8 -8 -9
-16 -16 -16 -16 -16 -16 -16 -16 -16 -16 -15 -15 -14 -14 -14 -14 -14 -14 -14 -15 -15 -14 -14 -13 -12 -12 -13 -13 -12 -12 -12 -12 -11 -11 -11 -10 -10 -10 -10 -9 -9 -9 -9 -8
-16 -16 -16 -16 -16 -16 -16 -16 -17 -16 -16 -16 -15 -15 -15 -15 -15 -15 -15 -15 -15 -15 -14 -14 -14 -13 -13 -13 -13 -14 -13 -12 -12 -12 -12 -11 -11 -10 -10 -10 -9 -9 -9 -9
-17 -17 -17 -17 -17 -17 -17 -17 -17 -16 -16 -16 -16 -16 -17 -16 -16 -16 -16 -16 -16 -15 -15 -14 -14 -14 -13 -14 -14 -14 -14 -13 -13 -13 -13 -12 -12 -11 -11 -10 -10 -9 -9 -9
Height
5836 5845 5852 5861 5864 5865 5868 5870 5872 5873 5878 5875 5870 5879 5882 5887 5892 5895 5899 5900 5904 5906 5907 5909 5912 5913 5916 5918 5919 5920 5923 5924 5925 5926 5927 5928 5928 5928 5929 5929 5928 5930 5931 5933
5831 5841 5850 5853 5858 5861 5864 5866 5869 5871 5875 5878 5873 5879 5883 5886 5889 5891 5894 5899 5903 5905 5907 5908 5911 5913 5916 5918 5919 5920 5924 5926 5927 5928 5928 5930 5930 5931 5932 5932 5932 5933 5933 5934
5828 5838 5840 5846 5851 5855 5861 5866 5868 5870 5872 5873 5870 5877 5882 5885 5888 5890 5893 5896 5899 5902 5905 5907 5910 5913 5915 5918 5920 5924 5925 5926 5928 5930 5931 5931 5932 5932 5934 5934 5935 5937 5937 5938
5823 5828 5834 5841 5847 5851 5857 5863 5864 5866 5868 5873 5875 5878 5878 5880 5884 5887 5890 5893 5896 5901 5904 5906 5908 5912 5915 5919 5920 5924 5925 5926 5928 5931 5932 5932 5934 5934 5936 5937 5937 5938 5940 5941
5819 5822 5829 5836 5845 5849 5858 5857 5861 5863 5865 5870 5874 5877 5880 5878 5879 5882 5888 5891 5893 5898 5902 5904 5907 5911 5914 5917 5920 5923 5924 5926 5929 5932 5933 5934 5935 5935 5937 5939 5940 5940 5942 5942
5811 5815 5823 5833 5838 5846 5850 5850 5854 5859 5862 5867 5873 5876 5878 5877 5879 5882 5886 5890 5893 5895 5899 5900 5903 5909 5913 5916 5920 5922 5923 5926 5929 5931 5934 5936 5938 5937 5939 5939 5940 5941 5943 5944
5805 5810 5820 5824 5830 5835 5839 5843 5850 5855 5857 5867 5869 5873 5874 5877 5878 5883 5886 5888 5891 5893 5895 5898 5901 5907 5911 5913 5916 5919 5921 5925 5929 5930 5932 5936 5938 5938 5939 5940 5941 5941 5943 5945
5800 5808 5815 5821 5827 5832 5836 5840 5845 5849 5855 5863 5863 5869 5872 5873 5875 5879 5882 5885 5888 5891 5893 5897 5901 5904 5908 5910 5913 5917 5919 5921 5926 5927 5931 5933 5937 5938 5939 5941 5942 5943 5944 5946
5796 5804 5809 5816 5822 5828 5831 5835 5842 5845 5854 5855 5859 5867 5868 5872 5877 5879 5881 5882 5885 5889 5892 5895 5897 5895 5902 5908 5911 5914 5917 5919 5922 5925 5927 5929 5932 5936 5938 5940 5943 5943 5944 5946
5794 5800 5805 5811 5817 5822 5828 5833 5837 5841 5847 5850 5855 5862 5865 5869 5874 5877 5879 5882 5883 5885 5891 5891 5892 5893 5898 5903 5907 5911 5915 5918 5920 5924 5925 5927 5929 5931 5934 5937 5939 5941 5943 5945
5789 5795 5802 5807 5813 5819 5824 5827 5833 5839 5843 5846 5851 5858 5862 5866 5870 5873 5876 5880 5882 5884 5885 5886 5888 5892 5895 5899 5904 5907 5911 5915 5919 5921 5921 5925 5927 5929 5929 5931 5934 5938 5941 5942
5785 5791 5797 5802 5806 5813 5815 5821 5827 5831 5836 5841 5844 5853 5858 5862 5866 5867 5871 5875 5879 5882 5883 5885 5886 5889 5892 5895 5899 5902 5903 5907 5911 5915 5918 5919 5924 5927 5929 5930 5930 5932 5935 5939
5782 5788 5793 5797 5803 5807 5810 5813 5819 5825 5831 5836 5840 5848 5853 5858 5861 5864 5867 5871 5873 5876 5878 5881 5883 5885 5889 5890 5891 5893 5897 5898 5901 5907 5911 5913 5917 5922 5925 5927 5929 5933 5932 5933
5778 5784 5789 5792 5796 5800 5805 5809 5814 5819 5825 5830 5833 5841 5848 5855 5859 5860 5862 5864 5867 5869 5873 5877 5880 5882 5884 5887 5887 5888 5887 5890 5894 5899 5904 5909 5910 5913 5919 5922 5923 5926 5930 5932
5776 5781 5784 5787 5790 5797 5802 5807 5811 5815 5819 5824 5829 5834 5843 5851 5855 5857 5858 5858 5858 5863 5867 5872 5876 5879 5880 5882 5884 5882 5883 5886 5890 5894 5896 5901 5905 5907 5911 5916 5918 5921 5923 5926
5773 5777 5779 5783 5784 5791 5797 5802 5805 5809 5813 5819 5823 5826 5835 5844 5847 5852 5854 5852 5852 5857 5862 5866 5870 5873 5876 5877 5879 5881 5883 5885 5886 5888 5889 5893 5897 5899 5902 5908 5911 5914 5917 5919
5765 5771 5776 5779 5781 5784 5791 5795 5800 5803 5807 5812 5817 5825 5829 5837 5842 5845 5848 5850 5849 5851 5857 5862 5865 5868 5870 5873 5877 5880 5882 5882 5883 5884 5884 5885 5890 5890 5895 5897 5901 5905 5909 5912
5761 5762 5766 5773 5778 5778 5780 5789 5794 5797 5801 5807 5812 5815 5819 5824 5831 5837 5841 5845 5847 5849 5853 5856 5858 5863 5866 5869 5871 5873 5876 5877 5880 5880 5881 5881 5884 5884 5887 5889 5892 5895 5899 5904
5758 5760 5762 5764 5769 5773 5777 5782 5787 5789 5793 5799 5804 5809 5813 5817 5821 5828 5833 5839 5843 5844 5847 5851 5852 5856 5859 5862 5865 5867 5869 5871 5874 5876 5878 5880 5883 5885 5888 5889 5888 5890 5893 5898
5753 5755 5759 5761 5762 5765 5773 5775 5778 5783 5788 5793 5799 5802 5805 5810 5814 5818 5823 5828 5832 5834 5839 5845 5847 5849 5852 5855 5859 5861 5863 5866 5868 5870 5873 5875 5877 5879 5881 5883 5886 5888 5891 5894
5744 5746 5749 5752 5753 5758 5763 5768 5767 5776 5785 5783 5789 5795 5799 5801 5806 5808 5811 5814 5818 5825 5828 5829 5836 5841 5843 5847 5852 5856 5859 5860 5862 5865 5867 5871 5874 5876 5878 5880 5882 5884 5887 5888
5739 5741 5743 5744 5746 5752 5753 5756 5766 5770 5770 5773 5779 5785 5788 5792 5795 5797 5801 5804 5806 5812 5816 5818 5821 5825 5832 5836 5840 5844 5848 5852 5855 5859 5861 5862 5864 5867 5870 5873 5876 5878 5881 5884
5736 5737 5739 5741 5743 5745 5746 5749 5752 5758 5763 5768 5772 5775 5780 5782 5785 5787 5790 5794 5800 5802 5804 5807 5811 5815 5818 5823 5826 5831 5836 5842 5846 5849 5852 5854 5855 5857 5859 5862 5865 5869 5870 5873
5730 5731 5732 5734 5735 5737 5739 5741 5744 5748 5751 5757 5762 5765 5768 5772 5775 5777 5779 5783 5787 5791 5796 5800 5803 5808 5811 5814 5817 5821 5824 5828 5834 5838 5840 5843 5845 5847 5848 5850 5852 5855 5858 5860
5724 5724 5724 5725 5727 5729 5731 5733 5736 5740 5744 5747 5750 5754 5757 5759 5762 5766 5769 5773 5774 5778 5782 5787 5791 5794 5798 5801 5804 5806 5809 5812 5815 5819 5822 5826 5830 5833 5835 5837 5840 5842 5844 5847
5716 5716 5717 5717 5717 5720 5723 5725 5728 5731 5735 5738 5741 5743 5745 5748 5751 5754 5757 5760 5761 5764 5767 5771 5776 5780 5782 5785 5788 5791 5794 5796 5799 5803 5805 5809 5812 5816 5819 5822 5824 5826 5828 5831
Wind_Speed
44 40 32 24 22 24 21 23 23 24 18 22 14 9 11 12 16 15 12 13 12 13 13 14 16 14 12 12 13 13 7 10 12 13 16 14 14 14 12 13 14 15 15 15
43 41 33 31 28 27 24 26 26 23 17 17 17 15 15 20 19 18 17 16 14 14 12 10 14 13 12 12 11 12 9 7 11 12 15 14 15 13 12 12 13 14 13 15
38 34 38 37 35 32 29 27 25 24 26 21 12 14 16 18 19 18 15 18 18 19 17 13 11 11 12 14 14 13 12 7 8 11 12 13 15 15 13 12 12 10 12 14
34 38 40 40 38 36 33 28 28 27 27 18 19 11 13 13 22 20 17 14 19 17 17 16 15 14 11 12 15 15 13 9 7 8 11 12 12 15 13 13 12 12 10 11
34 39 39 40 37 37 31 34 32 31 29 26 27 14 9 11 20 27 21 18 18 21 19 17 16 15 13 11 12 14 13 12 10 8 7 9 11 14 13 13 12 12 9 9
35 39 40 35 34 35 36 39 38 35 35 31 17 17 14 11 6 16 21 16 17 22 23 21 16 15 13 10 11 13 14 13 13 12 9 9 10 14 13 14 13 11 10 9
39 40 37 40 42 41 46 43 39 36 38 22 22 19 15 14 4 5 17 15 11 22 23 19 20 16 14 15 15 16 17 16 15 15 14 11 9 11 14 12 13 13 11 10
38 37 37 39 41 40 44 46 43 42 32 23 23 20 22 17 12 10 9 7 6 10 22 22 16 24 17 17 19 19 20 20 19 19 17 16 14 13 12 12 12 13 13 12
36 36 36 36 38 39 43 48 43 39 32 27 28 22 26 28 21 14 12 8 7 14 17 25 26 23 24 18 18 20 21 22 24 22 21 20 19 17 15 14 13 13 13 13
34 36 36 36 39 40 42 44 45 42 38 33 28 25 24 24 24 18 14 11 10 14 14 18 22 26 20 21 20 20 21 23 24 24 23 22 22 22 20 18 16 14 13 13
33 36 37 36 35 35 39 43 46 43 43 35 35 32 29 29 26 19 18 16 14 12 12 14 8 7 8 20 21 22 24 25 24 25 26 25 23 25 25 24 20 19 17 16
33 35 37 38 36 36 42 45 49 46 44 40 39 36 28 29 27 25 23 23 19 18 19 13 11 9 10 15 22 33 33 30 29 27 28 28 25 25 26 26 26 25 22 18
33 33 38 37 34 35 43 46 50 50 47 43 43 37 35 31 25 24 23 21 23 23 23 19 16 15 15 19 22 25 29 32 30 34 33 32 30 28 27 28 28 26 25 24
35 33 36 39 39 39 41 45 51 51 51 49 47 45 41 32 31 23 25 28 25 25 24 22 22 22 18 17 21 26 22 30 34 32 32 34 34 35 33 31 31 30 27 24
33 33 34 37 39 37 38 39 43 48 50 51 50 50 45 40 35 34 27 26 40 30 28 26 25 26 20 19 20 16 16 20 37 38 34 36 38 36 38 37 34 33 32 30
31 31 36 35 40 38 36 35 39 44 48 51 50 51 46 37 35 36 30 36 33 22 16 28 24 18 20 21 18 15 15 22 21 20 37 34 35 38 44 40 38 38 38 35
24 33 36 36 41 42 41 38 38 40 47 52 51 48 44 40 39 37 33 34 28 26 21 20 17 16 17 18 18 20 18 16 17 20 21 19 41 26 33 44 43 46 44 42
23 24 33 33 34 37 36 32 39 38 43 50 52 52 49 47 46 45 38 34 25 25 23 23 21 18 19 20 20 20 21 18 19 19 21 21 11 15 13 14 21 43 45 50
19 21 26 32 35 37 40 43 35 33 33 44 49 48 47 47 50 48 47 42 25 22 19 22 24 23 21 20 23 23 24 25 25 25 21 22 18 17 15 11 12 9 20 27
27 26 28 28 27 39 38 49 46 44 41 38 39 43 45 47 46 43 38 39 43 44 40 28 27 25 25 23 24 25 27 27 27 26 25 22 22 20 21 17 14 14 15 17
19 22 28 34 37 36 45 46 42 48 45 50 47 39 38 41 46 50 47 43 46 42 44 42 42 40 33 30 30 31 31 27 25 25 26 25 24 23 24 23 22 22 23 25
20 21 24 25 29 38 40 39 36 39 41 44 44 42 42 42 41 44 42 37 32 32 35 41 44 46 39 41 40 40 37 33 28 31 33 31 30 28 27 27 27 27 27 29
21 20 20 25 25 27 33 42 40 36 45 43 41 46 40 46 51 48 41 45 40 38 45 41 39 44 42 46 41 37 35 36 39 39 39 40 39 39 39 36 35 34 34 34
21 21 22 25 25 26 28 31 37 38 40 40 42 46 47 44 40 40 40 39 38 42 44 49 45 41 39 44 45 44 44 45 48 49 46 44 46 46 45 44 43 41 40 40
21 23 25 26 27 27 29 30 33 33 34 36 36 37 42 49 48 45 47 46 47 49 49 48 52 56 55 55 51 51 57 60 61 58 56 52 49 49 49 47 46 48 46 45
23 23 25 27 30 30 29 30 30 31 34 37 38 40 40 38 40 41 43 43 43 44 44 47 50 55 56 56 54 55 53 51 45 47 47 47 48 49 48 48 49 51 50 50
Wind_Direction
216 217 221 216 204 209 226 226 230 232 218 232 190 158 132 136 167 169 167 149 163 151 163 156 154 154 150 144 134 115 126 118 112 117 115 107 93 90 100 106 121 125 123 117
213 212 210 211 206 211 224 230 229 237 237 239 193 157 148 165 172 169 176 167 171 149 150 169 154 159 152 145 143 136 138 161 130 130 121 116 105 99 96 98 112 128 137 134
211 203 206 205 205 207 218 227 232 233 232 224 148 173 177 181 183 178 174 182 175 160 160 168 156 166 169 153 154 160 153 171 141 129 125 119 119 109 105 99 93 110 134 143
206 204 208 208 206 205 213 218 227 238 247 236 221 219 217 218 193 189 186 183 188 173 178 171 163 166 186 174 158 163 162 160 159 141 134 135 122 116 110 109 104 102 121 146
203 206 205 207 206 207 207 215 220 228 237 236 238 250 259 273 211 191 182 189 174 184 177 185 176 169 182 190 180 167 169 160 163 174 150 141 135 125 124 117 114 108 111 122
202 207 204 196 200 202 200 214 219 222 232 237 230 239 256 214 233 204 176 184 186 190 189 193 191 178 178 190 196 180 177 174 171 172 180 164 157 142 139 128 124 121 120 121
204 207 200 196 198 199 201 214 216 223 228 230 224 216 223 211 213 212 183 178 205 200 196 204 207 207 198 196 202 198 180 188 179 182 178 182 180 156 152 140 138 134 137 140
204 206 205 200 202 200 205 212 217 220 225 217 219 212 201 208 214 208 217 208 243 202 200 197 232 227 214 203 203 205 197 192 188 190 185 185 186 180 164 163 158 153 157 160
202 205 203 201 201 202 204 212 215 217 212 210 219 197 204 210 215 203 210 230 220 208 207 211 212 204 187 214 215 213 213 202 203 196 192 192 187 192 188 184 173 169 168 168
202 205 206 204 202 204 207 212 215 216 214 218 219 212 202 209 202 198 198 226 213 227 213 224 220 214 219 216 217 222 221 222 214 212 200 205 195 193 193 195 188 187 177 174
199 203 204 209 205 205 207 212 218 222 220 219 223 221 218 204 206 211 216 223 228 243 248 255 231 204 195 215 222 232 229 223 224 219 215 210 209 204 199 201 198 197 196 189
200 201 199 203 208 200 202 209 215 221 223 220 224 219 214 211 216 225 229 228 226 228 225 228 244 217 224 237 224 226 242 228 220 216 221 218 218 216 212 212 210 199 199 200
201 204 200 200 201 201 206 208 211 216 224 223 223 222 221 216 215 216 223 227 227 222 224 233 242 239 229 247 243 240 254 243 227 216 216 219 215 220 219 214 222 220 210 203
206 204 203 206 207 203 207 212 212 215 219 224 228 228 230 225 221 225 225 230 237 224 220 228 234 243 242 241 249 251 275 250 213 228 211 220 219 217 220 217 217 221 222 222
216 210 210 208 211 214 216 217 219 220 218 223 232 236 236 234 235 230 231 238 230 221 227 234 240 240 243 246 243 256 271 243 214 218 227 219 219 223 221 218 215 221 221 219
220 218 218 220 209 213 218 218 216 222 223 223 229 235 238 234 234 232 237 244 228 227 241 227 235 247 239 238 240 237 252 235 234 234 228 233 225 237 220 220 218 221 222 220
240 226 231 226 229 214 214 217 223 225 224 226 228 234 236 238 238 243 245 250 271 275 245 240 217 221 234 237 237 242 229 231 236 244 263 249 231 233 229 228 218 217 220 224
233 240 212 228 229 240 241 227 228 229 230 228 229 233 235 237 239 242 250 252 261 238 229 228 223 223 221 231 230 227 237 239 235 245 263 275 281 280 249 273 235 236 231 224
223 231 241 229 229 230 236 228 228 225 228 229 230 232 236 239 243 247 250 252 248 221 225 224 217 216 220 229 237 239 238 242 241 247 253 256 260 270 267 280 283 231 214 228
241 239 244 238 248 240 231 237 230 227 225 225 228 230 237 242 244 251 251 247 252 259 262 238 228 229 239 232 236 243 245 245 250 255 259 261 264 257 265 270 265 259 245 243
243 236 238 245 250 247 235 240 220 221 223 230 237 234 238 245 246 251 258 262 260 258 258 259 258 250 233 235 247 242 244 251 255 261 264 263 262 264 265 265 263 259 253 252
249 249 233 236 238 240 242 246 242 235 223 222 224 228 231 235 244 250 254 251 248 246 241 239 240 235 242 239 229 233 235 234 241 260 269 272 273 274 271 267 264 258 253 250
245 249 239 239 241 241 241 246 249 241 241 230 230 233 231 236 240 243 254 257 238 236 230 225 230 243 255 242 228 222 229 246 263 266 270 269 268 270 271 268 267 265 263 260
249 245 241 241 244 242 241 240 242 246 250 250 250 244 239 241 236 237 245 245 247 245 239 236 227 238 243 245 239 248 253 259 264 267 265 265 266 268 268 267 267 264 262 262
267 263 257 250 247 243 241 238 238 238 235 237 236 239 241 244 245 245 249 249 249 247 243 243 246 250 251 253 247 247 258 267 269 270 269 268 266 266 267 266 267 266 264 261
265 263 262 258 254 247 242 243 241 239 238 240 238 238 242 244 245 245 245 242 242 245 248 249 250 251 253 255 258 261 262 262 264 262 262 260 259 259 258 258 261 263 263 263